[[{"header":{"parameterUnit":"m.s-1","parameterCategory":2,"la1":30.2991,"la2":30.254,"lo1":-89.0895,"lo2":-89.0444,"dy":0.0017,"dx":0.0017,"nx":28,"ny":28,"refTime":"2025-03-25T09:00:00:Z","depth":"0","parameterNumber":2,"parameterNumberName":"U-component_of_CURRENTS"},"data":[0,0,0,0,0,0,0,0,0,0,0,0,0,0,0,0,0,0,0,0,0,0,0,0,0,0,0,0,0,0,0,0,0,0,0,0,0,0,0,0,0,0,0,0,0,0,0,0,0,0,0,0,0,0,0,0,0,0,0.3605,0.3605,0,0.3632,0.3632,0.3632,0.3632,0.3632,0.3632,0.3632,0.3617,0.3617,0.3617,0,0,0,0,0,0,0,0,0,0,0,0,0,0.3564,0.3564,0.3605,0.3606,0.3606,0.3632,0.3632,0.3632,0.3632,0.3632,0.3632,0.3632,0.3617,0.3617,0.3617,0,0,0,0,0,0,0,0,0,0,0,0,0,0.3583,0.3565,0.3605,0.3611,0.3612,0.3632,0.3632,0.3632,0.3632,0.3632,0.3632,0.3632,0.3617,0.3617,0.3617,0.3617,0,0,0.3615,0.3615,0,0,0,0,0,0,0,0,0.3582,0.3584,0.361,0.3611,0.3612,0.3631,0.3612,0.3626,0.3632,0.3622,0.3632,0.3632,0.362,0.3619,0.3621,0.3616,0.3615,0.3615,0.3615,0.3615,0.3615,0,0,0,0,0,0,0,0.358,0.3583,0.3613,0.361,0.3612,0.3616,0.3618,0.3615,0.3618,0.3623,0.3623,0.3631,0.362,0.3622,0.3621,0.3615,0.3615,0.3615,0.3614,0.3614,0.3682,0.3684,0,0,0,0,0,0,0.3582,0.3582,0.3612,0.3614,0.3599,0.3617,0.362,0.3623,0.3619,0.362,0.3631,0.3631,0.3622,0.3621,0.362,0.3669,0.3615,0.3614,0.3614,0.368,0.3683,0.3685,0,0,0,0,0,0,0.3581,0.3584,0.3611,0.3601,0.3605,0.3618,0.3622,0.3623,0.3628,0.3626,0.3625,0.3635,0.3622,0.3621,0.3635,0.3666,0.3614,0.3614,0.3678,0.3681,0.3684,0.3734,0,0,0,0,0,0,0.358,0.3584,0.3582,0.3601,0.3605,0.3625,0.3622,0.3624,0.3634,0.3634,0.3629,0.3628,0.3622,0.3636,0.3634,0.3664,0.3613,0.3675,0.3679,0.3683,0.373,0.3738,0.3746,0,0,0,0,0,0.3578,0.3569,0.3582,0.3585,0.3604,0.3626,0.3628,0.3636,0.3634,0.3638,0.3647,0.3628,0.366,0.3637,0.3635,0.3665,0.3673,0.3678,0.3682,0.3726,0.3737,0.3746,0,0,0,0,0,0,0.3534,0.3569,0.3583,0.3581,0.3608,0.3627,0.3626,0.3638,0.3647,0.3647,0.3642,0.3642,0.3672,0.3663,0.3637,0.3701,0.3668,0.3673,0.3702,0.3712,0.372,0.3724,0.3613,0,0,0,0,0,0.353,0.3539,0.3575,0.3572,0.3587,0.361,0.3618,0.3631,0.3645,0.3649,0.3651,0.3664,0.369,0.3694,0.3707,0.3728,0.3778,0.3753,0.3761,0.3768,0.3773,0.3871,0.3888,0.37,0.37,0.37,0,0,0.3509,0.3531,0.3533,0.3565,0.3583,0.3614,0.3613,0.363,0.3661,0.3645,0.3673,0.3687,0.3703,0.3739,0.3752,0.3733,0.386,0.3774,0.3779,0.3781,0.3877,0.3896,0.3912,0.3703,0.3703,0.3702,0,0,0.3486,0.3497,0.3509,0.3541,0.3581,0.3605,0.3614,0.3646,0.3663,0.3698,0.3709,0.3744,0.376,0.3793,0.381,0.387,0.3901,0.3873,0.3911,0.4006,0.4022,0.4037,0.4173,0.42,0.3874,0.3875,0.3875,0,0.3462,0.3489,0.3513,0.3545,0.3576,0.3605,0.3639,0.3664,0.3697,0.3729,0.3713,0.3793,0.3795,0.3871,0.3891,0.3888,0.3958,0.3868,0.4017,0.4032,0.4046,0.4182,0.421,0.3878,0.3877,0.3877,0.3877,0,0.3466,0.3494,0.3502,0.3563,0.3595,0.3624,0.3679,0.3712,0.3738,0.3775,0.3848,0.3866,0.3921,0.393,0.3922,0.4027,0.4054,0.4018,0.3989,0.4068,0.4207,0.4236,0.3882,0.3881,0.388,0.3879,0,0,0.3403,0.3491,0.3495,0.3548,0.3615,0.365,0.3705,0.3781,0.3846,0.3872,0.3962,0.3996,0.4016,0.4038,0.4046,0.4109,0.4277,0.4101,0.4105,0.4234,0.4533,0.4527,0.4559,0.4264,0.4268,0.4271,0.4608,0,0.3407,0.3477,0.3517,0.3595,0.3646,0.3705,0.3767,0.384,0.39,0.3991,0.4031,0.4108,0.4057,0.4099,0.4157,0.4242,0.4347,0.4192,0.4439,0.4448,0.4429,0.4588,0.4335,0.461,0.4636,0.464,0.4644,0,0.3407,0.3464,0.3538,0.3659,0.3686,0.3737,0.3867,0.3928,0.4051,0.4102,0.4177,0.4215,0.432,0.426,0.4462,0.4367,0.4463,0.4522,0.4536,0.4526,0.4494,0.4526,0.4661,0.4482,0.4688,0.4684,0.4681,0,0.3384,0.3483,0.355,0.3588,0.3717,0.3771,0.3841,0.3962,0.4046,0.4182,0.4265,0.4371,0.446,0.4561,0.4672,0.4588,0.4915,0.482,0.4924,0.4927,0.4757,0.4737,0.4735,0.4999,0.4998,0.4997,0.4996,0,0.3388,0.3444,0.3552,0.3597,0.3704,0.3784,0.3908,0.3994,0.4136,0.4258,0.4322,0.4444,0.4535,0.4708,0.4775,0.4969,0.5018,0.4985,0.5021,0.4773,0.4752,0.462,0.4538,0.501,0.5007,0.5005,0.5002,0,0.3367,0.3426,0.3526,0.3658,0.37,0.3784,0.3943,0.4047,0.4165,0.433,0.438,0.456,0.4778,0.4909,0.5129,0.513,0.5148,0.5354,0.5081,0.5077,0.4925,0.4856,0.4838,0.47,0.551,0.5512,0.5513,0,0.3366,0.3411,0.3559,0.3635,0.37,0.3821,0.3918,0.4049,0.4163,0.4399,0.4495,0.4741,0.4925,0.5267,0.532,0.5511,0.5285,0.536,0.5126,0.4935,0.4886,0.4699,0.4567,0.4956,0.4953,0.4951,0.4949,0,0.3389,0.344,0.3541,0.3678,0.3787,0.3891,0.4031,0.4109,0.4278,0.4429,0.4657,0.4821,0.5117,0.5179,0.5399,0.5442,0.5047,0.5316,0.5165,0.4512,0.4261,0.4137,0.4759,0.4927,0.4929,0.4931,0.4932,0.4933,0.3425,0.3504,0.3638,0.3763,0.3869,0.396,0.3998,0.4137,0.4295,0.4444,0.4687,0.4836,0.4943,0.5206,0.5237,0.5015,0.5016,0.4775,0.4744,0.4601,0.4327,0.4941,0.5101,0.5104,0.5106,0.5109,0.5111,0,0.3505,0.3599,0.3719,0.3859,0.3936,0.3979,0.4079,0.406,0.4167,0.4365,0.4541,0.4625,0.4688,0.4708,0.4597,0.4417,0.4206,0.4255,0.3864,0.379,0.4378,0.4202,0.4113,0.4113,0.4113,0.4113,0.4113,0.4114,0.357,0.3708,0.3764,0.3894,0.3956,0.3976,0.3986,0.3927,0.3991,0.4005,0.4019,0.4134,0.422,0.4229,0.3996,0.3885,0.3544,0.3414,0.3451,0.3769,0.381,0.3848,0.366,0.3458,0.3457,0.2636,0.2629,0.2625]},{"header":{"parameterUnit":"m.s-1","parameterCategory":2,"la1":30.2991,"la2":30.254,"lo1":-89.0895,"lo2":-89.0444,"dy":0.0017,"dx":0.0017,"nx":28,"ny":28,"refTime":"2025-03-25T09:00:00:Z","depth":"0","parameterNumber":3,"parameterNumberName":"V-component_of_CURRENTS"},"data":[0,0,0,0,0,0,0,0,0,0,0,0,0,0,0,0,0,0,0,0,0,0,0,0,0,0,0,0,0,0,0,0,0,0,0,0,0,0,0,0,0,0,0,0,0,0,0,0,0,0,0,0,0,0,0,0,0,0,-0.057,-0.0571,0,-0.0623,-0.0623,-0.0624,-0.0669,-0.0669,-0.0669,-0.067,-0.0785,-0.0787,-0.079,0,0,0,0,0,0,0,0,0,0,0,0,0,-0.0532,-0.0533,-0.057,-0.0571,-0.0571,-0.0623,-0.0623,-0.0624,-0.0669,-0.0669,-0.067,-0.067,-0.0784,-0.0787,-0.079,0,0,0,0,0,0,0,0,0,0,0,0,0,-0.0564,-0.0533,-0.057,-0.0599,-0.0602,-0.0622,-0.0623,-0.0624,-0.0669,-0.0669,-0.067,-0.067,-0.0783,-0.0787,-0.0791,-0.0805,0,0,-0.0803,-0.0805,0,0,0,0,0,0,0,0,-0.0562,-0.0566,-0.0594,-0.0597,-0.06,-0.0638,-0.0652,-0.0688,-0.0668,-0.0645,-0.067,-0.067,-0.074,-0.0748,-0.0758,-0.0811,-0.0816,-0.0804,-0.0806,-0.0808,-0.0809,0,0,0,0,0,0,0,-0.056,-0.0564,-0.0593,-0.0594,-0.0598,-0.0617,-0.0622,-0.0659,-0.0691,-0.0647,-0.065,-0.0653,-0.0743,-0.0754,-0.0761,-0.0817,-0.0804,-0.0807,-0.081,-0.0811,-0.0957,-0.0959,0,0,0,0,0,0,-0.0549,-0.0562,-0.0591,-0.0594,-0.058,-0.0617,-0.0622,-0.0627,-0.069,-0.0699,-0.0653,-0.0655,-0.0746,-0.0756,-0.0765,-0.0808,-0.0808,-0.0812,-0.0814,-0.0956,-0.0958,-0.0959,0,0,0,0,0,0,-0.0548,-0.0551,-0.0589,-0.0578,-0.0584,-0.0616,-0.0621,-0.0627,-0.0637,-0.0693,-0.0704,-0.0655,-0.0747,-0.076,-0.0807,-0.0812,-0.0814,-0.0817,-0.0954,-0.0956,-0.0958,-0.088,0,0,0,0,0,0,-0.0547,-0.055,-0.0544,-0.0577,-0.0584,-0.0591,-0.0621,-0.0628,-0.0638,-0.0641,-0.0699,-0.071,-0.0749,-0.0801,-0.0811,-0.0818,-0.0821,-0.0952,-0.0955,-0.0958,-0.0881,-0.0879,-0.0878,0,0,0,0,0,-0.0545,-0.0525,-0.0544,-0.0547,-0.0576,-0.059,-0.0595,-0.0621,-0.0637,-0.0634,-0.0686,-0.0708,-0.0826,-0.0805,-0.0817,-0.0825,-0.0951,-0.0954,-0.0958,-0.0882,-0.088,-0.0878,0,0,0,0,0,0,-0.0496,-0.0529,-0.055,-0.0539,-0.0562,-0.0597,-0.059,-0.0615,-0.0651,-0.0659,-0.0716,-0.0731,-0.0777,-0.0818,-0.0793,-0.0881,-0.0896,-0.0902,-0.0835,-0.0834,-0.0832,-0.0765,-0.0824,0,0,0,0,0,-0.0485,-0.0486,-0.052,-0.0512,-0.0519,-0.0556,-0.0563,-0.0586,-0.0623,-0.0639,-0.0683,-0.0743,-0.08,-0.0828,-0.0878,-0.0916,-0.0899,-0.0938,-0.0936,-0.0934,-0.0892,-0.0889,-0.0881,-0.097,-0.097,-0.097,0,0,-0.046,-0.0481,-0.0479,-0.0503,-0.0521,-0.0522,-0.0562,-0.0568,-0.0577,-0.0647,-0.0671,-0.0732,-0.081,-0.0857,-0.0882,-0.089,-0.09,-0.0938,-0.0935,-0.0894,-0.0891,-0.0881,-0.0873,-0.0972,-0.0971,-0.0971,0,0,-0.0411,-0.0433,-0.0417,-0.0435,-0.0462,-0.0488,-0.0488,-0.0526,-0.0549,-0.0585,-0.0647,-0.07,-0.0782,-0.0832,-0.0872,-0.0893,-0.089,-0.0932,-0.0867,-0.0865,-0.0856,-0.0847,-0.0795,-0.0782,-0.0933,-0.0933,-0.0933,0,-0.0379,-0.0371,-0.0412,-0.0406,-0.0411,-0.0469,-0.0453,-0.0485,-0.0537,-0.055,-0.0583,-0.0694,-0.0764,-0.0814,-0.0831,-0.0882,-0.0862,-0.0861,-0.0855,-0.0847,-0.084,-0.0788,-0.0775,-0.093,-0.093,-0.093,-0.0931,0,-0.0326,-0.0319,-0.0308,-0.0326,-0.0339,-0.0332,-0.0384,-0.0404,-0.0446,-0.048,-0.0531,-0.0623,-0.0679,-0.0734,-0.0789,-0.0793,-0.0787,-0.0846,-0.0841,-0.0824,-0.0774,-0.0761,-0.0925,-0.0926,-0.0927,-0.0928,0,0,-0.0246,-0.0266,-0.0259,-0.0259,-0.0296,-0.0301,-0.0317,-0.0342,-0.0341,-0.0409,-0.0403,-0.0522,-0.0557,-0.0604,-0.0687,-0.0698,-0.0644,-0.0741,-0.0743,-0.0651,-0.0588,-0.0562,-0.0546,-0.0699,-0.0697,-0.0695,-0.0564,0,-0.0187,-0.0157,-0.0186,-0.0159,-0.0148,-0.0205,-0.0213,-0.0251,-0.0291,-0.0302,-0.0391,-0.0425,-0.0516,-0.0543,-0.0565,-0.0633,-0.0611,-0.067,-0.0648,-0.0646,-0.0595,-0.0532,-0.051,-0.0389,-0.0552,-0.055,-0.0549,0,-0.0123,-0.0115,-0.0073,-0.0084,-0.0082,-0.008,-0.0097,-0.0109,-0.015,-0.018,-0.0217,-0.0279,-0.0315,-0.0397,-0.0431,-0.0462,-0.0495,-0.0539,-0.0537,-0.052,-0.0597,-0.0442,-0.0361,-0.0579,-0.053,-0.0531,-0.0533,0,-0.0053,-0.0036,-0.0001,-0.0002,-0.0022,-0.0016,-0.0029,-0.0065,-0.0062,-0.0086,-0.0072,-0.0135,-0.0149,-0.0208,-0.0294,-0.0356,-0.0301,-0.041,-0.0398,-0.0395,-0.0373,-0.0371,-0.0465,-0.0387,-0.0387,-0.0388,-0.0388,0,0.0018,0.0046,0.0036,0.0054,0.0089,0.0052,0.0086,0.006,0.0057,0.0094,0.0009,0.0041,-0.01,-0.0106,-0.0203,-0.0226,-0.0221,-0.0332,-0.0352,-0.0347,-0.0345,-0.0534,-0.0677,-0.0383,-0.0384,-0.0385,-0.0386,0,0.0084,0.0086,0.0118,0.0117,0.0122,0.0144,0.0154,0.0178,0.0174,0.023,0.0235,0.02,0.0204,0.0098,0.0025,-0.0086,-0.0237,-0.0146,-0.01,-0.0117,-0.0353,-0.0492,-0.055,-0.0642,-0.0114,-0.0113,-0.0111,0,0.0122,0.0147,0.0164,0.0186,0.0189,0.0218,0.0238,0.0231,0.027,0.0339,0.0383,0.0411,0.047,0.0399,0.0218,0.0122,-0.0125,0.0028,-0.011,-0.0312,-0.0482,-0.0598,-0.0683,-0.0039,-0.0037,-0.0036,-0.0035,0,0.0176,0.0179,0.0197,0.0245,0.0276,0.032,0.036,0.0416,0.0446,0.0539,0.0673,0.0746,0.0686,0.0626,0.0461,0.0318,-0.0145,0.0053,-0.0181,-0.0425,-0.0529,-0.0646,-0.0159,-0.0022,-0.0023,-0.0024,-0.0025,-0.0025,0.0204,0.0222,0.0245,0.029,0.0342,0.0425,0.0497,0.0594,0.0727,0.0946,0.0951,0.1203,0.0997,0.079,0.0513,0.0017,-0.0026,-0.0158,-0.0297,-0.0385,-0.0521,0.0029,0.0138,0.0138,0.0137,0.0137,0.0137,0,0.022,0.0239,0.0285,0.0347,0.0424,0.0444,0.058,0.0715,0.0945,0.1238,0.1438,0.1602,0.1269,0.0851,0.0189,-0.0236,-0.0459,-0.0503,-0.0701,-0.0765,-0.028,-0.0329,-0.0287,-0.0286,-0.0286,-0.0286,-0.0286,-0.0286,0.0229,0.026,0.028,0.0399,0.0465,0.0598,0.07,0.0968,0.1242,0.1712,0.2024,0.2222,0.1915,0.0508,-0.0447,-0.068,-0.106,-0.1095,-0.1282,-0.1018,-0.0999,-0.0981,-0.1063,-0.1174,-0.1175,-0.1718,-0.1724,-0.1728]}],[{"header":{"parameterUnit":"m.s-1","parameterCategory":2,"la1":30.2991,"la2":30.254,"lo1":-89.0895,"lo2":-89.0444,"dy":0.0017,"dx":0.0017,"nx":28,"ny":28,"refTime":"2025-03-25T09:00:00:Z","depth":"2","parameterNumber":2,"parameterNumberName":"U-component_of_CURRENTS"},"data":[0,0,0,0,0,0,0,0,0,0,0,0,0,0,0,0,0,0,0,0,0,0,0,0,0,0,0,0,0,0,0,0,0,0,0,0,0,0,0,0,0,0,0,0,0,0,0,0,0,0,0,0,0,0,0,0,0,0,0.259,0.2591,0,0.2662,0.2662,0.2663,0.2688,0.2688,0.2688,0.2688,0.2671,0.2671,0.267,0,0,0,0,0,0,0,0,0,0,0,0,0,0.2552,0.2552,0.259,0.2591,0.2592,0.2661,0.2662,0.2663,0.2688,0.2688,0.2688,0.2688,0.2671,0.2671,0.267,0,0,0,0,0,0,0,0,0,0,0,0,0,0.2588,0.2552,0.259,0.2615,0.2618,0.2661,0.2662,0.2663,0.2688,0.2688,0.2688,0.2688,0.2672,0.2671,0.267,0.2667,0,0,0.2668,0.2668,0,0,0,0,0,0,0,0,0.2585,0.2588,0.261,0.2613,0.2617,0.2668,0.2643,0.2661,0.2688,0.2658,0.2688,0.2687,0.2664,0.2664,0.2675,0.2666,0.2665,0.2668,0.2668,0.2668,0.2668,0,0,0,0,0,0,0,0.2583,0.2586,0.2615,0.2611,0.2616,0.265,0.2653,0.2647,0.2656,0.2661,0.2663,0.2676,0.2665,0.2675,0.2674,0.2665,0.2668,0.2668,0.2667,0.2667,0.2746,0.2749,0,0,0,0,0,0,0.2575,0.2583,0.2613,0.2618,0.2604,0.265,0.2654,0.2649,0.2659,0.2662,0.2676,0.2677,0.2676,0.2675,0.2674,0.2735,0.2668,0.2667,0.2667,0.2744,0.2747,0.2749,0,0,0,0,0,0,0.2574,0.2577,0.261,0.2606,0.2613,0.265,0.2645,0.2651,0.2683,0.2672,0.2672,0.2705,0.2676,0.2674,0.2696,0.2731,0.2667,0.2666,0.2741,0.2745,0.2748,0.2814,0,0,0,0,0,0,0.2572,0.2575,0.2579,0.2604,0.2613,0.2648,0.2645,0.2652,0.2691,0.2694,0.2696,0.2694,0.2676,0.2697,0.2695,0.2729,0.2666,0.2738,0.2743,0.2747,0.2809,0.282,0.2829,0,0,0,0,0,0.257,0.2573,0.2578,0.2583,0.2612,0.265,0.2657,0.2683,0.2693,0.2711,0.2721,0.2695,0.2726,0.2698,0.2695,0.273,0.2735,0.2741,0.2747,0.2805,0.2818,0.2829,0,0,0,0,0,0,0.2553,0.2576,0.2583,0.259,0.2625,0.2655,0.2677,0.2698,0.2723,0.2726,0.2715,0.2714,0.2761,0.2736,0.2706,0.2772,0.2731,0.2736,0.2776,0.2788,0.2798,0.2808,0.2665,0,0,0,0,0,0.2552,0.2564,0.2592,0.2602,0.2617,0.2653,0.2676,0.2695,0.2718,0.2731,0.2732,0.2744,0.278,0.2774,0.2796,0.2808,0.2833,0.2835,0.2845,0.2854,0.2864,0.2931,0.2948,0.2768,0.2768,0.2768,0,0,0.2549,0.2566,0.2572,0.2602,0.2627,0.266,0.2666,0.2705,0.2741,0.2722,0.2761,0.2786,0.28,0.2837,0.2853,0.2814,0.2926,0.2861,0.2867,0.2873,0.2939,0.2956,0.2971,0.2772,0.2771,0.277,0,0,0.2554,0.2563,0.2577,0.261,0.2656,0.2679,0.2696,0.2734,0.2759,0.2801,0.2819,0.2863,0.288,0.2906,0.2922,0.2997,0.2997,0.3006,0.3035,0.3101,0.3116,0.3129,0.3214,0.3234,0.2985,0.2985,0.2985,0,0.2554,0.2568,0.2591,0.2622,0.2651,0.269,0.272,0.2758,0.2801,0.2832,0.282,0.2915,0.292,0.2993,0.3024,0.3019,0.3062,0.2982,0.3113,0.3127,0.3139,0.3222,0.3244,0.2989,0.2989,0.2988,0.2988,0,0.2566,0.2594,0.2609,0.2656,0.2691,0.2725,0.2775,0.2815,0.2848,0.2891,0.2976,0.2995,0.3053,0.3066,0.3065,0.3163,0.3172,0.3137,0.3077,0.3161,0.3244,0.3265,0.2995,0.2993,0.2992,0.2991,0,0,0.2527,0.26,0.2609,0.2643,0.2711,0.2742,0.2805,0.2876,0.2949,0.2982,0.3061,0.3128,0.3158,0.318,0.3192,0.3227,0.3363,0.3217,0.3218,0.3294,0.3537,0.3429,0.3441,0.335,0.3353,0.3356,0.357,0,0.2532,0.2586,0.2622,0.2689,0.2724,0.2783,0.2848,0.2925,0.2999,0.3086,0.3126,0.3211,0.3198,0.3237,0.3284,0.336,0.3418,0.331,0.3451,0.3456,0.3342,0.3461,0.3167,0.3322,0.359,0.3594,0.3596,0,0.253,0.2571,0.2628,0.272,0.274,0.2802,0.2922,0.2975,0.3109,0.3181,0.327,0.3309,0.3407,0.3358,0.3531,0.3467,0.3519,0.3549,0.3558,0.3443,0.3385,0.3277,0.335,0.3632,0.3629,0.3626,0.3624,0,0.2494,0.2574,0.2619,0.2652,0.2763,0.2821,0.2877,0.3016,0.3096,0.3243,0.3333,0.3444,0.3524,0.3594,0.3673,0.3621,0.3843,0.3776,0.373,0.3725,0.3494,0.346,0.389,0.389,0.3889,0.3889,0.3888,0,0.2487,0.2526,0.2623,0.2658,0.2729,0.2814,0.2906,0.3016,0.3182,0.327,0.338,0.3481,0.3587,0.3702,0.3741,0.3827,0.3916,0.3775,0.3777,0.3511,0.3478,0.3742,0.3722,0.3897,0.3895,0.3894,0.3892,0,0.2452,0.251,0.2566,0.2683,0.2719,0.2771,0.2904,0.2991,0.3172,0.3294,0.334,0.3574,0.3717,0.3812,0.3957,0.3927,0.3994,0.399,0.3682,0.3641,0.3819,0.3801,0.3974,0.3972,0.3971,0.3969,0.3968,0,0.2441,0.2467,0.2557,0.2592,0.2656,0.2727,0.2785,0.2964,0.3057,0.3317,0.338,0.3593,0.3667,0.389,0.3893,0.3963,0.402,0.3713,0.3531,0.3846,0.3832,0.3815,0.3799,0.3284,0.3277,0.3272,0.3267,0,0.2407,0.2437,0.2475,0.2528,0.2599,0.2654,0.2756,0.2833,0.3009,0.3142,0.3335,0.3421,0.3619,0.3564,0.3664,0.3647,0.3668,0.36,0.4049,0.328,0.3204,0.3186,0.3192,0.3219,0.3224,0.3227,0.323,0.3232,0.2365,0.2358,0.2391,0.2445,0.252,0.2589,0.2594,0.2692,0.2794,0.2916,0.3111,0.315,0.326,0.3248,0.3205,0.32,0.343,0.3274,0.3288,0.3308,0.3162,0.3083,0.3052,0.3055,0.3059,0.3061,0.3064,0,0.2305,0.228,0.2307,0.235,0.2382,0.2477,0.2576,0.2534,0.2554,0.2654,0.2738,0.2586,0.2591,0.2722,0.2635,0.2659,0.26,0.2557,0.2454,0.2506,0.2552,0.2362,0.2044,0.204,0.2036,0.2033,0,0,0.2262,0.2207,0.2202,0.2178,0.2247,0.2239,0.2276,0.2254,0.2287,0.2197,0.2195,0.2394,0.2589,0.2247,0.2251,0.2125,0.2276,0.2041,0.2868,0.2796,0.2835,0.299,0.2761,0,0,0,0,0]},{"header":{"parameterUnit":"m.s-1","parameterCategory":2,"la1":30.2991,"la2":30.254,"lo1":-89.0895,"lo2":-89.0444,"dy":0.0017,"dx":0.0017,"nx":28,"ny":28,"refTime":"2025-03-25T09:00:00:Z","depth":"2","parameterNumber":3,"parameterNumberName":"V-component_of_CURRENTS"},"data":[0,0,0,0,0,0,0,0,0,0,0,0,0,0,0,0,0,0,0,0,0,0,0,0,0,0,0,0,0,0,0,0,0,0,0,0,0,0,0,0,0,0,0,0,0,0,0,0,0,0,0,0,0,0,0,0,0,0,0.0088,0.0087,0,0.0011,0.001,0.0009,-0.0039,-0.0039,-0.004,-0.004,-0.0114,-0.0116,-0.0118,0,0,0,0,0,0,0,0,0,0,0,0,0,0.0115,0.0115,0.0088,0.0087,0.0086,0.0011,0.001,0.0009,-0.0039,-0.0039,-0.004,-0.004,-0.0114,-0.0116,-0.0118,0,0,0,0,0,0,0,0,0,0,0,0,0,0.0078,0.0115,0.0088,0.0053,0.0049,0.0011,0.001,0.0009,-0.0039,-0.0039,-0.004,-0.004,-0.0113,-0.0115,-0.0118,-0.0125,0,0,-0.0126,-0.0127,0,0,0,0,0,0,0,0,0.008,0.0077,0.0059,0.0055,0.0051,-0.0005,-0.0008,-0.0036,-0.0039,-0.0005,-0.004,-0.004,-0.0077,-0.0083,-0.0096,-0.0129,-0.0132,-0.0126,-0.0128,-0.0129,-0.0129,0,0,0,0,0,0,0,0.0083,0.0079,0.0058,0.0058,0.0053,0.0014,0.0009,-0.0014,-0.0037,-0.0008,-0.0012,-0.0021,-0.008,-0.0093,-0.0098,-0.0133,-0.0126,-0.0128,-0.013,-0.0131,-0.0184,-0.0184,0,0,0,0,0,0,0.0096,0.0082,0.006,0.0056,0.0064,0.0014,0.0008,0.0014,-0.0037,-0.0046,-0.002,-0.0023,-0.0089,-0.0095,-0.0101,-0.0105,-0.0129,-0.0131,-0.0133,-0.0185,-0.0184,-0.0184,0,0,0,0,0,0,0.0097,0.0096,0.0063,0.0066,0.0059,0.0014,0.002,0.0012,-0.0005,-0.0047,-0.0055,-0.003,-0.0089,-0.0097,-0.0123,-0.0109,-0.0132,-0.0135,-0.0185,-0.0185,-0.0184,-0.0119,0,0,0,0,0,0,0.0099,0.0097,0.0102,0.0067,0.0059,0.0048,0.002,0.0011,-0.001,-0.0014,-0.0058,-0.0065,-0.009,-0.0119,-0.0126,-0.0113,-0.0137,-0.0185,-0.0185,-0.0184,-0.0121,-0.0116,-0.0112,0,0,0,0,0,0.01,0.0111,0.0103,0.01,0.007,0.0049,0.0041,0.0007,-0.001,-0.0012,-0.0046,-0.0064,-0.0123,-0.0121,-0.0129,-0.0116,-0.0185,-0.0185,-0.0184,-0.0123,-0.0117,-0.0112,0,0,0,0,0,0,0.0122,0.0106,0.0097,0.0102,0.008,0.004,0.0035,0.001,-0.002,-0.0025,-0.0065,-0.0075,-0.0094,-0.0116,-0.0114,-0.0133,-0.0156,-0.0157,-0.0106,-0.0101,-0.0097,-0.0067,-0.0139,0,0,0,0,0,0.0132,0.0136,0.0113,0.0114,0.0111,0.0073,0.0058,0.0036,0.0005,-0.0008,-0.0038,-0.007,-0.0099,-0.0108,-0.0138,-0.0145,-0.0166,-0.0142,-0.0138,-0.0134,-0.0116,-0.0149,-0.0146,-0.0183,-0.0183,-0.0184,0,0,0.014,0.013,0.0132,0.0119,0.0102,0.0104,0.0064,0.0048,0.0047,-0.0011,-0.0019,-0.006,-0.0101,-0.0113,-0.0122,-0.0127,-0.0134,-0.0133,-0.013,-0.0114,-0.0149,-0.0145,-0.0142,-0.0183,-0.0183,-0.0183,0,0,0.0161,0.0155,0.0169,0.0159,0.0137,0.012,0.0119,0.0087,0.0072,0.0052,0.0011,-0.0018,-0.0058,-0.0079,-0.0097,-0.0085,-0.0117,-0.0098,-0.0042,-0.0074,-0.0071,-0.0069,-0.0085,-0.0085,-0.0087,-0.0086,-0.0086,0,0.017,0.0189,0.0167,0.0177,0.0178,0.0135,0.0153,0.0131,0.0091,0.0092,0.0059,0.0003,-0.0039,-0.0044,-0.0046,-0.0073,-0.0094,-0.0056,-0.0067,-0.0065,-0.0063,-0.0081,-0.0082,-0.0083,-0.0084,-0.0084,-0.0084,0,0.0205,0.0218,0.0226,0.0234,0.0231,0.0235,0.0214,0.0207,0.0181,0.0159,0.014,0.0079,0.0052,0.0029,-0.0009,-0.0011,-0.003,-0.0064,-0.0075,-0.0055,-0.0076,-0.0077,-0.0079,-0.008,-0.0081,-0.0082,0,0,0.0235,0.0251,0.0254,0.0282,0.0264,0.0277,0.0277,0.0281,0.0307,0.0246,0.0274,0.0196,0.0162,0.0139,0.009,0.0061,0.0041,0.001,0.0007,0.0004,-0.0019,-0.0041,-0.0045,0.0002,0.0002,0.0002,-0.0036,0,0.0272,0.0319,0.031,0.0361,0.0391,0.0366,0.0383,0.0376,0.0361,0.0377,0.0307,0.0302,0.0205,0.02,0.0151,0.0071,0.0039,0.0055,-0.0047,-0.0049,-0.0063,-0.0047,-0.0037,-0.007,-0.0037,-0.0038,-0.0038,0,0.0311,0.0343,0.04,0.0454,0.0468,0.0488,0.0534,0.0551,0.0546,0.0531,0.0499,0.0442,0.0388,0.0306,0.0176,0.0189,0.0093,0.0024,0.002,-0.002,-0.0073,-0.0088,-0.0074,-0.0041,-0.004,-0.004,-0.004,0,0.0362,0.0412,0.0469,0.0482,0.0524,0.0554,0.0587,0.0598,0.0653,0.0642,0.0666,0.0571,0.0551,0.0405,0.0233,0.0205,0.0102,0.0042,-0.0063,-0.0065,-0.0084,-0.0088,-0.004,-0.004,-0.004,-0.004,-0.004,0,0.0409,0.0458,0.0503,0.0536,0.0629,0.0635,0.0741,0.0746,0.0799,0.088,0.0761,0.0792,0.0572,0.0476,0.0295,0.012,0.0139,-0.004,-0.0075,-0.0062,-0.0063,-0.0063,-0.0066,-0.0042,-0.0041,-0.0041,-0.0041,0,0.0453,0.0473,0.0557,0.0624,0.0654,0.0733,0.086,0.0943,0.0956,0.1059,0.106,0.0974,0.0833,0.0615,0.0403,0.0223,0.0045,-0.0021,0.0017,-0.0013,-0.0116,-0.0114,-0.0144,-0.0145,-0.0146,-0.0147,-0.0148,0,0.048,0.0521,0.0632,0.0705,0.0741,0.086,0.0947,0.1012,0.1117,0.1173,0.1237,0.1133,0.1071,0.0751,0.0421,0.0118,0.0076,-0.0067,-0.0132,-0.0095,-0.0126,-0.0123,-0.012,-0.013,-0.0131,-0.0131,-0.0132,0,0.0543,0.0578,0.0658,0.0805,0.0912,0.1051,0.1187,0.1285,0.1371,0.144,0.151,0.1463,0.1147,0.0831,0.041,0.0197,-0.0028,-0.0084,-0.0047,-0.0107,-0.0086,-0.0115,-0.0112,-0.0135,-0.0134,-0.0134,-0.0134,-0.0134,0.06,0.0677,0.0789,0.0932,0.1062,0.1225,0.1348,0.1495,0.1656,0.1749,0.1697,0.1615,0.1257,0.0703,0.0347,-0.0036,-0.0029,-0.0181,-0.0178,-0.0175,-0.0168,-0.015,-0.0209,-0.0209,-0.0209,-0.0209,-0.0209,0,0.0688,0.0773,0.0912,0.1095,0.125,0.1298,0.1499,0.1615,0.18,0.1848,0.1876,0.1511,0.1153,0.0753,0.0177,-0.0161,-0.0192,-0.026,-0.0231,-0.0226,-0.0222,-0.0216,-0.027,-0.0271,-0.0272,-0.0273,0,0,0.0742,0.0894,0.097,0.1229,0.1348,0.1558,0.1667,0.1814,0.1894,0.1924,0.1863,0.1733,0.125,0.0828,0.0371,0.0049,-0.0008,-0.0013,0.0068,0.016,0.0169,-0.015,-0.0132,0,0,0,0,0]}],[{"header":{"parameterUnit":"m.s-1","parameterCategory":2,"la1":30.2991,"la2":30.254,"lo1":-89.0895,"lo2":-89.0444,"dy":0.0017,"dx":0.0017,"nx":28,"ny":28,"refTime":"2025-03-25T09:00:00:Z","depth":"4","parameterNumber":2,"parameterNumberName":"U-component_of_CURRENTS"},"data":[0,0,0,0,0,0,0,0,0,0,0,0,0,0,0,0,0,0,0,0,0,0,0,0,0,0,0,0,0,0,0,0,0,0,0,0,0,0,0,0,0,0,0,0,0,0,0,0,0,0,0,0,0,0,0,0,0,0,0.1426,0.1427,0,0.1477,0.1477,0.1478,0.1512,0.1513,0.1513,0.1514,0.1553,0.1553,0.1554,0,0,0,0,0,0,0,0,0,0,0,0,0,0.1367,0.1368,0.1426,0.1427,0.1428,0.1477,0.1477,0.1478,0.1512,0.1513,0.1513,0.1514,0.1553,0.1553,0.1554,0,0,0,0,0,0,0,0,0,0,0,0,0,0.1399,0.1368,0.1426,0.1454,0.1457,0.1477,0.1477,0.1478,0.1512,0.1513,0.1514,0.1514,0.1552,0.1553,0.1554,0.154,0,0,0.1556,0.1556,0,0,0,0,0,0,0,0,0.1397,0.1401,0.1449,0.1452,0.1456,0.1493,0.1471,0.1499,0.1512,0.1487,0.1514,0.1515,0.1533,0.1536,0.1538,0.1542,0.1543,0.1556,0.1556,0.1557,0.1557,0,0,0,0,0,0,0,0.1395,0.1399,0.1442,0.145,0.1454,0.1468,0.1472,0.1476,0.1501,0.1489,0.1493,0.1504,0.1535,0.1537,0.1539,0.1544,0.1556,0.1557,0.1557,0.1557,0.1608,0.1608,0,0,0,0,0,0,0.1395,0.1397,0.1441,0.1444,0.1433,0.1468,0.1473,0.1477,0.1501,0.1507,0.1504,0.1506,0.1535,0.1538,0.1541,0.161,0.1557,0.1557,0.1558,0.1607,0.1608,0.1609,0,0,0,0,0,0,0.1394,0.1398,0.1439,0.1425,0.1432,0.1468,0.1472,0.1477,0.1515,0.1513,0.1518,0.154,0.1536,0.154,0.1572,0.1609,0.1558,0.1558,0.1606,0.1607,0.1608,0.1696,0,0,0,0,0,0,0.1391,0.1397,0.142,0.1425,0.1433,0.147,0.1471,0.1478,0.152,0.1524,0.1545,0.1548,0.1537,0.1571,0.1573,0.1609,0.1559,0.1604,0.1606,0.1608,0.1692,0.17,0.1707,0,0,0,0,0,0.1389,0.1408,0.1421,0.1428,0.1456,0.1472,0.1477,0.1503,0.1521,0.154,0.1557,0.1549,0.1583,0.1573,0.1575,0.1612,0.1604,0.1606,0.1608,0.1688,0.1698,0.1707,0,0,0,0,0,0,0.1392,0.1414,0.1428,0.1453,0.1473,0.148,0.1507,0.1523,0.1551,0.1567,0.1563,0.1567,0.1603,0.1593,0.1582,0.1628,0.1591,0.1593,0.1652,0.1661,0.1669,0.169,0.1559,0,0,0,0,0,0.1404,0.1429,0.1444,0.1469,0.1481,0.1501,0.1521,0.1538,0.1555,0.1571,0.1585,0.1597,0.1606,0.1625,0.1622,0.1657,0.1667,0.1679,0.1687,0.1693,0.1711,0.1757,0.1772,0.1616,0.1616,0.1615,0,0,0.1412,0.1431,0.1445,0.1474,0.1491,0.1509,0.1515,0.1552,0.1574,0.1569,0.1614,0.1623,0.1617,0.1649,0.1666,0.1655,0.1743,0.1696,0.1702,0.1716,0.1761,0.1777,0.1791,0.1617,0.1617,0.1616,0,0,0.1428,0.1456,0.1479,0.1498,0.1537,0.1544,0.1563,0.1589,0.1613,0.1651,0.1651,0.1695,0.1703,0.172,0.1724,0.1775,0.1774,0.1768,0.1841,0.1886,0.19,0.1912,0.1952,0.1967,0.1783,0.1783,0.1784,0,0.1444,0.146,0.1489,0.1513,0.1534,0.1562,0.1583,0.1606,0.1644,0.1671,0.1676,0.1732,0.1739,0.1786,0.1811,0.1797,0.1817,0.1809,0.1899,0.1912,0.1923,0.196,0.1976,0.1788,0.1787,0.1787,0.1786,0,0.1459,0.1487,0.1501,0.1537,0.1569,0.1589,0.1622,0.1664,0.17,0.1723,0.1789,0.1812,0.1851,0.1862,0.1859,0.1941,0.1927,0.1897,0.1882,0.1944,0.1979,0.1994,0.1794,0.1793,0.1791,0.179,0,0,0.1451,0.1499,0.1509,0.1521,0.1581,0.1595,0.1657,0.1702,0.1748,0.1802,0.186,0.1914,0.1949,0.1957,0.197,0.2029,0.2136,0.2014,0.2014,0.2065,0.2243,0.2095,0.2097,0.2126,0.2129,0.2131,0.2238,0,0.145,0.1481,0.152,0.1552,0.156,0.1621,0.1664,0.1726,0.1788,0.185,0.1908,0.196,0.1974,0.2014,0.2078,0.2113,0.2178,0.211,0.2165,0.2167,0.2038,0.211,0.214,0.2249,0.2252,0.2255,0.2257,0,0.1447,0.1463,0.1495,0.1538,0.1552,0.1593,0.1684,0.1727,0.183,0.1889,0.1983,0.2018,0.2125,0.2114,0.2246,0.2203,0.2243,0.2271,0.2275,0.2118,0.2046,0.217,0.2283,0.2281,0.2279,0.2277,0.2276,0,0.1398,0.1444,0.1465,0.1482,0.1543,0.1593,0.1637,0.1749,0.1799,0.193,0.1994,0.2101,0.2181,0.2244,0.2325,0.2296,0.2452,0.2404,0.2311,0.2301,0.2364,0.235,0.2502,0.2502,0.2501,0.2501,0.2501,0,0.1362,0.1374,0.1447,0.1451,0.1485,0.1559,0.163,0.1706,0.1826,0.1893,0.201,0.2088,0.2226,0.232,0.2356,0.2386,0.2482,0.2344,0.2324,0.2396,0.2384,0.2375,0.2359,0.2505,0.2504,0.2503,0.2503,0,0.1298,0.1344,0.1355,0.1428,0.1462,0.1488,0.1607,0.1655,0.1792,0.1895,0.1942,0.2119,0.2245,0.235,0.2478,0.2427,0.2459,0.2445,0.2541,0.2521,0.2269,0.2256,0.2338,0.2334,0.233,0.2327,0.2325,0,0.1259,0.1266,0.1332,0.134,0.1378,0.1441,0.149,0.163,0.1697,0.1894,0.193,0.211,0.2212,0.2279,0.2392,0.2451,0.2429,0.2427,0.233,0.2283,0.2256,0.2249,0.2241,0.2319,0.2318,0.2317,0.2316,0,0.1174,0.1217,0.1225,0.1256,0.1304,0.1335,0.1425,0.1465,0.1634,0.1778,0.1887,0.1962,0.2107,0.2204,0.2284,0.2311,0.2407,0.2389,0.2395,0.2304,0.226,0.2236,0.2233,0.2304,0.2306,0.2307,0.2308,0,0.1115,0.11,0.1135,0.1145,0.1197,0.1212,0.127,0.1362,0.1448,0.1686,0.1724,0.1912,0.209,0.2133,0.2191,0.2221,0.2182,0.2101,0.2122,0.2137,0.202,0.1932,0.1877,0,0,0,0,0,0.1042,0.1014,0.1018,0.102,0.1071,0.1107,0.1219,0.1292,0.1481,0.1518,0.1618,0.1738,0.185,0.1946,0.194,0.209,0.2177,0.207,0.209,0.2235,0.225,0.213,0,0,0,0,0,0,0.0987,0.0985,0.0977,0.0929,0.0917,0.0967,0.1033,0.1152,0.1189,0.139,0.1468,0.1623,0.1763,0.1841,0.1903,0.1933,0.1907,0.2194,0.219,0.2227,0.224,0.2252,0.2134,0,0,0,0,0]},{"header":{"parameterUnit":"m.s-1","parameterCategory":2,"la1":30.2991,"la2":30.254,"lo1":-89.0895,"lo2":-89.0444,"dy":0.0017,"dx":0.0017,"nx":28,"ny":28,"refTime":"2025-03-25T09:00:00:Z","depth":"4","parameterNumber":3,"parameterNumberName":"V-component_of_CURRENTS"},"data":[0,0,0,0,0,0,0,0,0,0,0,0,0,0,0,0,0,0,0,0,0,0,0,0,0,0,0,0,0,0,0,0,0,0,0,0,0,0,0,0,0,0,0,0,0,0,0,0,0,0,0,0,0,0,0,0,0,0,0.0187,0.0186,0,0.0152,0.0152,0.0151,0.0131,0.0131,0.0131,0.0131,0.0082,0.0081,0.008,0,0,0,0,0,0,0,0,0,0,0,0,0,0.0202,0.0202,0.0187,0.0186,0.0186,0.0152,0.0152,0.0151,0.0132,0.0131,0.0131,0.0131,0.0083,0.0081,0.008,0,0,0,0,0,0,0,0,0,0,0,0,0,0.0185,0.0202,0.0187,0.0172,0.017,0.0152,0.0152,0.0151,0.0132,0.0131,0.0131,0.0131,0.0083,0.0081,0.008,0.0072,0,0,0.0074,0.0073,0,0,0,0,0,0,0,0,0.0186,0.0184,0.0174,0.0173,0.0171,0.0145,0.0139,0.0124,0.0132,0.0147,0.0131,0.0131,0.0102,0.0099,0.0093,0.007,0.0068,0.0074,0.0073,0.0072,0.0072,0,0,0,0,0,0,0,0.0187,0.0186,0.0174,0.0174,0.0172,0.0155,0.0152,0.0136,0.0126,0.0145,0.0144,0.0139,0.0101,0.0095,0.0092,0.0067,0.0074,0.0073,0.0071,0.0071,0.005,0.005,0,0,0,0,0,0,0.0193,0.0187,0.0175,0.0172,0.0177,0.0155,0.0152,0.0154,0.0126,0.0122,0.0139,0.0138,0.0098,0.0094,0.009,0.0095,0.0072,0.0071,0.0069,0.0049,0.005,0.005,0,0,0,0,0,0,0.0193,0.0192,0.0176,0.0178,0.0175,0.0155,0.0157,0.0153,0.015,0.0122,0.0117,0.0139,0.0098,0.0093,0.0083,0.0092,0.007,0.0068,0.0049,0.0049,0.005,0.0095,0,0,0,0,0,0,0.0194,0.0193,0.0197,0.0179,0.0175,0.0172,0.0157,0.0153,0.0147,0.0145,0.012,0.0115,0.0097,0.0086,0.0082,0.009,0.0067,0.0048,0.0049,0.005,0.0093,0.0097,0.0101,0,0,0,0,0,0.0195,0.0202,0.0197,0.0195,0.0181,0.0173,0.017,0.0154,0.0147,0.015,0.0134,0.0116,0.0089,0.0085,0.008,0.0087,0.0047,0.0049,0.005,0.0091,0.0096,0.0101,0,0,0,0,0,0,0.0208,0.02,0.0194,0.0198,0.0189,0.0169,0.017,0.0158,0.0148,0.0147,0.0121,0.0115,0.0113,0.0093,0.009,0.0085,0.0066,0.0066,0.0099,0.0104,0.0108,0.012,0.0065,0,0,0,0,0,0.0214,0.0218,0.0205,0.0207,0.0208,0.019,0.0185,0.0174,0.0161,0.0156,0.014,0.0123,0.0113,0.0103,0.0093,0.0085,0.0054,0.0087,0.0091,0.0095,0.0101,0.0055,0.0055,0.0054,0.0054,0.0054,0,0,0.022,0.0214,0.0217,0.021,0.0204,0.0211,0.0187,0.0184,0.0189,0.0152,0.0157,0.0139,0.0116,0.0114,0.0111,0.0097,0.0079,0.0096,0.0099,0.0104,0.0056,0.0056,0.0056,0.0055,0.0055,0.0055,0,0,0.0234,0.0231,0.0242,0.0239,0.0232,0.0225,0.0227,0.0213,0.021,0.0207,0.0187,0.0174,0.0155,0.0142,0.0132,0.015,0.0106,0.0146,0.017,0.0125,0.0124,0.0123,0.0084,0.008,0.0143,0.0143,0.0143,0,0.0239,0.0255,0.0242,0.0252,0.0259,0.0236,0.0254,0.0246,0.023,0.0232,0.0216,0.0191,0.0171,0.0166,0.0173,0.016,0.0126,0.0153,0.0129,0.0127,0.0126,0.0086,0.008,0.0145,0.0145,0.0144,0.0144,0,0.0263,0.0277,0.0285,0.0296,0.0299,0.031,0.0303,0.0304,0.0295,0.0284,0.0278,0.0244,0.0229,0.0218,0.0201,0.0185,0.0163,0.0143,0.0116,0.0128,0.0086,0.0079,0.0148,0.0147,0.0147,0.0146,0,0,0.027,0.0298,0.0301,0.0328,0.0327,0.034,0.0349,0.0358,0.0373,0.0342,0.0349,0.0321,0.0296,0.0284,0.0253,0.021,0.0169,0.0174,0.017,0.0135,0.0068,0.0051,0.0042,0.0138,0.0137,0.0136,0.0043,0,0.0295,0.0337,0.0339,0.0387,0.0415,0.0406,0.0424,0.0425,0.0416,0.0416,0.0368,0.0366,0.0323,0.0317,0.0266,0.0201,0.0153,0.0197,0.0062,0.0058,0.0041,0.0034,0.0133,0.0038,0.0036,0.0035,0.0034,0,0.0317,0.0348,0.0401,0.0455,0.0467,0.0493,0.0527,0.054,0.0524,0.0514,0.0482,0.0441,0.039,0.0346,0.0222,0.0249,0.0166,0.0102,0.0096,0.0062,0.0029,0.0021,0.0021,0.0022,0.0023,0.0024,0.0024,0,0.0341,0.0394,0.0447,0.0463,0.0511,0.0541,0.0571,0.0575,0.0606,0.0579,0.0583,0.0502,0.0475,0.0352,0.022,0.0217,0.007,0.0049,-0.0047,-0.0049,-0.0026,-0.0025,-0.0047,-0.0047,-0.0046,-0.0046,-0.0046,0,0.0366,0.0411,0.0473,0.0503,0.058,0.0596,0.0668,0.0673,0.0694,0.0731,0.0645,0.0635,0.0474,0.0368,0.0233,0.0074,0.0076,-0.0043,-0.0075,-0.0004,0.0001,-0.0032,-0.0029,-0.005,-0.0049,-0.0048,-0.0048,0,0.0382,0.0415,0.0489,0.0563,0.0594,0.0654,0.075,0.0801,0.0803,0.084,0.0836,0.0741,0.0596,0.0422,0.0224,0.0109,-0.0052,-0.0111,-0.0016,-0.0042,-0.0145,-0.0138,-0.0225,-0.0227,-0.0228,-0.0229,-0.023,0,0.0395,0.0432,0.0536,0.0593,0.0636,0.073,0.0798,0.0849,0.0904,0.0901,0.0919,0.0797,0.0704,0.042,0.0224,-0.0045,-0.0084,-0.0167,-0.0164,-0.0141,-0.0164,-0.0156,-0.0148,-0.0232,-0.0232,-0.0232,-0.0232,0,0.0424,0.046,0.0524,0.0641,0.0733,0.0836,0.0936,0.0981,0.1029,0.1031,0.0986,0.0829,0.0661,0.0425,0.0216,0.0022,-0.0115,-0.018,-0.0179,-0.0177,-0.0149,-0.0169,-0.016,-0.0237,-0.0236,-0.0236,-0.0235,0,0.0449,0.0499,0.0587,0.0692,0.0805,0.0914,0.0963,0.1029,0.108,0.1072,0.105,0.0859,0.0755,0.0459,0.0264,0.0071,0.0018,-0.0043,-0.005,-0.0048,0.0024,0.0087,0.0043,0,0,0,0,0,0.0473,0.0536,0.0635,0.0759,0.0871,0.0944,0.1046,0.1084,0.1119,0.1102,0.1084,0.0921,0.0626,0.0496,0.03,0.0226,-0.0025,-0.0012,-0.0101,-0.0259,-0.0254,-0.0202,0,0,0,0,0,0,0.0493,0.0583,0.0637,0.0795,0.0886,0.1025,0.109,0.1115,0.1104,0.1095,0.0943,0.0871,0.0585,0.0743,0.0298,0.0237,0.0152,-0.0147,-0.0151,-0.0262,-0.0257,-0.0254,-0.0198,0,0,0,0,0]}]]